[[{"header":{"parameterUnit":"m.s-1","parameterCategory":1,"la1":30.2991,"la2":30.254,"lo1":-89.0895,"lo2":-89.0444,"dy":0.0017,"dx":0.0017,"nx":28,"ny":28,"refTime":"2023-07-29T21:00:00:Z","depth":0,"parameterNumber":2,"parameterNumberName":"U-component_of_WINDS"},"data":[0,0,0,0,0,0,0,0,0,0,0,0,0,0,0,0,0,0,0,0,0,0,0,0,0,0,0,0,0,0,0,0,0,0,0,0,0,0,0,0,0,0,0,0,0,0,0,0,0,0,0,0,0,0,0,0,0,0,4.536,4.5362,0,4.5511,4.5513,4.5514,4.5454,4.545,4.5447,4.5444,4.5599,4.5607,4.5614,0,0,0,0,0,0,0,0,0,0,0,0,0,4.5021,4.5028,4.536,4.5362,4.5364,4.5511,4.5513,4.5515,4.5455,4.545,4.5446,4.5442,4.5597,4.5606,4.5615,0,0,0,0,0,0,0,0,0,0,0,0,0,4.517,4.503,4.536,4.5352,4.5352,4.551,4.5513,4.5515,4.5456,4.545,4.5445,4.544,4.5594,4.5605,4.5616,4.5791,0,0,4.565,4.5655,0,0,0,0,0,0,0,0,4.5161,4.5182,4.5351,4.5353,4.5354,4.5458,4.545,4.5608,4.5457,4.5417,4.5443,4.5437,4.5557,4.5571,4.5611,4.5798,4.5805,4.5651,4.5658,4.5663,4.5666,0,0,0,0,0,0,0,4.5151,4.5175,4.542,4.5354,4.5355,4.534,4.5356,4.548,4.5515,4.542,4.5416,4.5434,4.5556,4.56,4.5614,4.5807,4.5651,4.5661,4.5667,4.5672,4.6144,4.6149,0,0,0,0,0,0,4.514,4.5167,4.5415,4.5424,4.5242,4.5351,4.5368,4.543,4.5513,4.5521,4.5438,4.5431,4.5584,4.5601,4.5619,4.5827,4.5662,4.5673,4.5679,4.6138,4.6145,4.6151,0,0,0,0,0,0,4.5133,4.5163,4.5409,4.5295,4.5325,4.5362,4.5433,4.5436,4.5479,4.5527,4.5533,4.5476,4.558,4.5603,4.5748,4.5832,4.5678,4.5688,4.6131,4.614,4.6148,4.6247,0,0,0,0,0,0,4.5124,4.5161,4.5228,4.5297,4.5331,4.5536,4.5438,4.5443,4.5498,4.549,4.5565,4.5572,4.5578,4.5732,4.5759,4.5845,4.5697,4.6123,4.6135,4.6145,4.6236,4.6258,4.6277,0,0,0,0,0,4.5112,4.5251,4.5232,4.5262,4.5416,4.5541,4.556,4.5564,4.5505,4.5573,4.5603,4.557,4.5819,4.5747,4.5777,4.5868,4.6118,4.6132,4.6144,4.6227,4.6254,4.6276,0,0,0,0,0,0,4.5192,4.526,4.5239,4.5404,4.5467,4.553,4.5615,4.5592,4.5673,4.5662,4.5663,4.568,4.5829,4.5863,4.5782,4.604,4.596,4.5979,4.6012,4.6038,4.6057,4.6045,4.5706,0,0,0,0,0,4.5229,4.5324,4.5378,4.5519,4.5551,4.5578,4.5633,4.563,4.5695,4.5721,4.5763,4.5827,4.592,4.5981,4.6069,4.6241,4.6256,4.6318,4.6338,4.6355,4.6371,4.6462,4.649,4.6194,4.6194,4.6194,0,0,4.5306,4.5355,4.5415,4.5536,4.5584,4.5683,4.5601,4.5709,4.5782,4.5738,4.5876,4.5909,4.5981,4.614,4.6212,4.6173,4.6456,4.6371,4.6384,4.6392,4.6479,4.6507,4.6531,4.6203,4.6201,4.62,0,0,4.5496,4.5543,4.5664,4.5714,4.5787,4.5804,4.5833,4.59,4.5919,4.6058,4.6026,4.6113,4.6273,4.6325,4.6373,4.6581,4.6552,4.661,4.6714,4.6803,4.6826,4.6847,4.6919,4.6945,4.6627,4.6627,4.6627,0,4.5582,4.5729,4.573,4.584,4.5893,4.5857,4.5979,4.6027,4.6126,4.6164,4.6119,4.6317,4.6364,4.6532,4.6583,4.6624,4.6656,4.6601,4.6823,4.6844,4.6863,4.6932,4.6959,4.6633,4.6633,4.6632,4.6631,0,4.5831,4.5933,4.6022,4.6117,4.6181,4.6296,4.6314,4.6378,4.637,4.6391,4.6532,4.6586,4.6683,4.6723,4.6717,4.6891,4.6864,4.6822,4.674,4.6898,4.6962,4.6988,4.6642,4.664,4.6638,4.6637,0,0,4.6076,4.6168,4.62,4.6242,4.632,4.6399,4.6513,4.6607,4.6661,4.673,4.6824,4.696,4.692,4.6974,4.6973,4.7051,4.721,4.6999,4.7,4.7034,4.7402,4.7432,4.7463,4.7191,4.7196,4.7201,4.7395,0,4.627,4.6468,4.6471,4.6653,4.6746,4.6713,4.6811,4.6869,4.6892,4.6975,4.7,4.7095,4.7037,4.7068,4.7145,4.7174,4.7283,4.7161,4.7278,4.7282,4.7258,4.7497,4.753,4.7711,4.7421,4.7425,4.7428,0,4.6523,4.6599,4.679,4.6852,4.6891,4.698,4.7065,4.7145,4.721,4.722,4.728,4.7266,4.7381,4.7298,4.7455,4.7371,4.742,4.7441,4.7448,4.7458,4.7363,4.7511,4.7769,4.7795,4.7468,4.7465,4.7462,0,4.668,4.683,4.6962,4.7,4.7076,4.7139,4.7174,4.7233,4.7289,4.7364,4.7399,4.7487,4.7535,4.7603,4.7613,4.7552,4.7771,4.7688,4.7782,4.7782,4.7828,4.7825,4.8095,4.7863,4.7863,4.7862,4.7862,0,4.6895,4.7013,4.7033,4.7115,4.7245,4.7247,4.7376,4.7406,4.7459,4.7545,4.7523,4.7604,4.7613,4.7697,4.7706,4.7834,4.7856,4.7867,4.7868,4.7868,4.7867,4.7899,4.7885,4.7869,4.7868,4.7866,4.7865,0,4.7092,4.711,4.7252,4.7313,4.733,4.7423,4.7475,4.7552,4.7572,4.7682,4.7707,4.7739,4.7836,4.7853,4.7969,4.7975,4.8126,4.8115,4.8104,4.8102,4.8193,4.8184,4.8493,4.8532,4.8276,4.8278,4.8281,0,4.7227,4.7316,4.7385,4.7441,4.7478,4.7569,4.7625,4.7631,4.769,4.7769,4.7837,4.7932,4.8008,4.8165,4.8198,4.8285,4.8275,4.8377,4.8288,4.8285,4.8273,4.8267,4.8275,4.8394,4.8396,4.8399,4.8401,0,4.7464,4.7469,4.755,4.7635,4.7702,4.7769,4.7833,4.788,4.7893,4.7961,4.806,4.8119,4.8235,4.8329,4.8416,4.8451,4.8428,4.8429,4.8454,4.8454,4.8443,4.8448,4.8148,4.8421,4.8419,4.8418,4.8416,4.8416,4.7633,4.771,4.7769,4.786,4.7908,4.7968,4.8043,4.8071,4.8153,4.8248,4.8247,4.8354,4.8415,4.8529,4.857,4.8654,4.8621,4.8659,4.8668,4.8677,4.8684,4.8431,4.867,4.8669,4.8669,4.8668,4.8668,0,4.7867,4.7903,4.7987,4.8075,4.8147,4.8118,4.8187,4.8248,4.8343,4.8401,4.8476,4.8588,4.8678,4.8718,4.8807,4.8866,4.8858,4.8889,4.8884,4.8892,4.871,4.8677,4.8894,4.8894,4.8894,4.8894,4.8894,4.8894,4.7997,4.8124,4.8136,4.8286,4.8322,4.8426,4.8467,4.8521,4.8567,4.8693,4.8768,4.8793,4.8844,4.8935,4.9017,4.9026,4.9058,4.9094,4.9099,4.8928,4.8905,4.8883,4.8852,4.9102,4.9102,4.9273,4.9275,4.9276]},{"header":{"parameterUnit":"m.s-1","parameterCategory":1,"la1":30.2991,"la2":30.254,"lo1":-89.0895,"lo2":-89.0444,"dy":0.0017,"dx":0.0017,"nx":28,"ny":28,"refTime":"2023-07-29T21:00:00:Z","depth":0,"parameterNumber":3,"parameterNumberName":"V-component_of_WINDS"},"data":[0,0,0,0,0,0,0,0,0,0,0,0,0,0,0,0,0,0,0,0,0,0,0,0,0,0,0,0,0,0,0,0,0,0,0,0,0,0,0,0,0,0,0,0,0,0,0,0,0,0,0,0,0,0,0,0,0,0,0.934,0.934,0,0.9372,0.9372,0.9373,0.9362,0.9362,0.9361,0.936,0.9393,0.9395,0.9396,0,0,0,0,0,0,0,0,0,0,0,0,0,0.9267,0.9268,0.934,0.934,0.934,0.9372,0.9373,0.9373,0.9362,0.9362,0.9361,0.936,0.9393,0.9395,0.9396,0,0,0,0,0,0,0,0,0,0,0,0,0,0.9299,0.9269,0.934,0.9339,0.9339,0.9372,0.9373,0.9373,0.9363,0.9362,0.9361,0.936,0.9392,0.9394,0.9397,0.9432,0,0,0.9404,0.9405,0,0,0,0,0,0,0,0,0.9297,0.9302,0.9339,0.9339,0.9339,0.9362,0.9359,0.9393,0.9363,0.9354,0.936,0.9359,0.9384,0.9387,0.9395,0.9433,0.9435,0.9404,0.9405,0.9406,0.9407,0,0,0,0,0,0,0,0.9295,0.93,0.9352,0.9339,0.934,0.9337,0.934,0.9365,0.9374,0.9354,0.9354,0.9358,0.9384,0.9393,0.9396,0.9435,0.9404,0.9406,0.9407,0.9408,0.9502,0.9503,0,0,0,0,0,0,0.9293,0.9298,0.9351,0.9353,0.9315,0.9339,0.9343,0.9356,0.9374,0.9376,0.9359,0.9357,0.9389,0.9393,0.9397,0.9438,0.9406,0.9408,0.941,0.9501,0.9502,0.9503,0,0,0,0,0,0,0.9291,0.9297,0.935,0.9326,0.9332,0.9341,0.9356,0.9357,0.9366,0.9377,0.9378,0.9366,0.9389,0.9394,0.9423,0.9439,0.9409,0.9411,0.95,0.9501,0.9503,0.9522,0,0,0,0,0,0,0.9289,0.9297,0.9311,0.9326,0.9334,0.9376,0.9357,0.9358,0.937,0.9369,0.9385,0.9386,0.9388,0.9419,0.9425,0.9442,0.9413,0.9498,0.95,0.9502,0.952,0.9524,0.9527,0,0,0,0,0,0.9287,0.9315,0.9312,0.9318,0.9351,0.9377,0.9381,0.9383,0.9372,0.9385,0.9392,0.9386,0.9436,0.9422,0.9429,0.9446,0.9497,0.95,0.9502,0.9518,0.9523,0.9527,0,0,0,0,0,0,0.9302,0.9317,0.9314,0.9348,0.9361,0.9375,0.9393,0.9389,0.9405,0.9403,0.9404,0.9408,0.9438,0.9445,0.9429,0.948,0.9465,0.9469,0.9475,0.948,0.9483,0.9481,0.9415,0,0,0,0,0,0.9309,0.933,0.9342,0.9371,0.9378,0.9384,0.9395,0.9395,0.9409,0.9415,0.9424,0.9437,0.9456,0.9468,0.9486,0.952,0.9523,0.9535,0.9539,0.9542,0.9546,0.9563,0.9569,0.9512,0.9512,0.9512,0,0,0.9325,0.9336,0.9349,0.9374,0.9384,0.9405,0.9389,0.9411,0.9426,0.9418,0.9446,0.9453,0.9468,0.9499,0.9514,0.9506,0.9562,0.9546,0.9548,0.955,0.9566,0.9572,0.9576,0.9513,0.9513,0.9513,0,0,0.9364,0.9374,0.9399,0.9409,0.9425,0.9429,0.9435,0.9449,0.9453,0.9481,0.9475,0.9492,0.9525,0.9535,0.9545,0.9585,0.958,0.9591,0.9611,0.9628,0.9633,0.9637,0.9651,0.9656,0.9594,0.9595,0.9595,0,0.9381,0.9412,0.9413,0.9435,0.9446,0.9439,0.9464,0.9474,0.9494,0.9502,0.9493,0.9533,0.9542,0.9576,0.9585,0.9594,0.96,0.959,0.9632,0.9636,0.964,0.9653,0.9658,0.9596,0.9596,0.9595,0.9595,0,0.9432,0.9453,0.9471,0.9491,0.9504,0.9527,0.9531,0.9544,0.9542,0.9547,0.9574,0.9585,0.9605,0.9613,0.9612,0.9645,0.964,0.9632,0.9616,0.9647,0.9659,0.9664,0.9598,0.9597,0.9597,0.9596,0,0,0.9483,0.9501,0.9508,0.9516,0.9532,0.9548,0.957,0.9589,0.96,0.9614,0.9632,0.9659,0.9651,0.9662,0.9661,0.9676,0.9707,0.9666,0.9666,0.9673,0.9743,0.9749,0.9755,0.9703,0.9704,0.9705,0.9742,0,0.9522,0.9562,0.9563,0.9599,0.9618,0.9611,0.963,0.9642,0.9646,0.9662,0.9667,0.9685,0.9674,0.968,0.9694,0.97,0.9721,0.9697,0.972,0.972,0.9716,0.9762,0.9769,0.9803,0.9747,0.9748,0.9748,0,0.9574,0.9589,0.9627,0.9639,0.9647,0.9664,0.9681,0.9697,0.9709,0.9711,0.9722,0.9719,0.9741,0.9725,0.9754,0.9738,0.9747,0.9751,0.9752,0.9755,0.9736,0.9765,0.9815,0.982,0.9756,0.9755,0.9755,0,0.9606,0.9636,0.9662,0.967,0.9684,0.9696,0.9703,0.9714,0.9725,0.9739,0.9746,0.9762,0.9771,0.9784,0.9785,0.9773,0.9815,0.9799,0.9817,0.9817,0.9826,0.9825,0.9877,0.9832,0.9832,0.9832,0.9832,0,0.965,0.9674,0.9677,0.9693,0.9719,0.9719,0.9744,0.9749,0.9759,0.9775,0.977,0.9786,0.9787,0.9802,0.9803,0.9827,0.9832,0.9833,0.9833,0.9834,0.9833,0.984,0.9837,0.9833,0.9833,0.9833,0.9832,0,0.9691,0.9694,0.9722,0.9733,0.9736,0.9755,0.9764,0.9779,0.9782,0.9803,0.9808,0.9813,0.9831,0.9833,0.9854,0.9855,0.9883,0.9881,0.9879,0.9879,0.9896,0.9894,0.9954,0.9962,0.9912,0.9912,0.9913,0,0.9719,0.9737,0.9749,0.976,0.9767,0.9784,0.9795,0.9795,0.9806,0.982,0.9833,0.9851,0.9865,0.9894,0.9899,0.9915,0.9912,0.9932,0.9915,0.9914,0.9912,0.9911,0.9912,0.9935,0.9936,0.9936,0.9937,0,0.9768,0.9768,0.9784,0.9799,0.9812,0.9825,0.9836,0.9845,0.9846,0.9859,0.9877,0.9888,0.9909,0.9926,0.9941,0.9947,0.9942,0.9942,0.9947,0.9948,0.9946,0.9946,0.9888,0.9941,0.994,0.994,0.994,0.994,0.9802,0.9817,0.9828,0.9845,0.9854,0.9864,0.9879,0.9883,0.9898,0.9916,0.9914,0.9934,0.9944,0.9964,0.9971,0.9986,0.998,0.9987,0.9989,0.9991,0.9992,0.9943,0.9989,0.9989,0.9989,0.9989,0.9989,0,0.985,0.9857,0.9872,0.9888,0.9902,0.9895,0.9907,0.9919,0.9936,0.9946,0.996,0.998,0.9996,1.0002,1.0017,1.0028,1.0026,1.0032,1.0031,1.0032,0.9997,0.9991,1.0034,1.0034,1.0034,1.0033,1.0033,1.0033,0.9877,0.9902,0.9903,0.9931,0.9937,0.9956,0.9964,0.9973,0.9981,1.0004,1.0017,1.002,1.0028,1.0044,1.0058,1.006,1.0065,1.0072,1.0073,1.004,1.0035,1.0031,1.0025,1.0074,1.0074,1.0106,1.0107,1.0107]}]]